Weather History for Eastman, GA

Change the Weather History Date:

Monday, December 31, 2012

  Actual Average Record
Temperature  
Mean Temperature 45 °F -  
Max Temperature 64 °F 59 °F 64 °F (2012)
Min Temperature 27 °F 38 °F 27 °F (2012)
Degree Days  
Heating Degree Days 20    
Moisture  
Dew Point 36 °F    
Average Humidity 74    
Maximum Humidity 96    
Minimum Humidity 38    
Precipitation  
Precipitation 0.00 in - - ()
Sea Level Pressure  
Sea Level Pressure 30.35 in    
Wind  
Wind Speed 1 mph (SW)    
Max Wind Speed 9 mph    
Max Gust Speed -    
Visibility 10 miles    
Events      
Averages and records for this station are not official NWS values.
T = Trace of Precipitation, MM = Missing Value Source: NWS Daily Summary

Daily Weather History Graph

Daily Weather History Graph

Search for Another Location

Airport:

Trip Planner

Search our weather history database for the weather conditions in past years. The results will help you decide how hot, cold, wet, or windy it might be!

Date:

Astronomy

Dec. 31, 2012 Rise Set
Actual Time 7:33 AM EST 5:38 PM EST
Civil Twilight 7:06 AM EST 6:05 PM EST
Nautical Twilight 6:35 AM EST 6:35 PM EST
Astronomical Twilight 6:06 AM EST 7:05 PM EST
Moon 8:55 PM EST (12/31) 9:25 AM EST (12/31)
Length of Visible Light 10h 58m
Length of Day
10h 04m
Waning Gibbous, 90% of the Moon is Illuminated
Dec 31
Waning Gibbous
Jan 4
Last Quarter
Jan 11
New
Jan 18
First Quarter
Jan 26
Full

Hourly Weather History & Observations

Time (EST) Temp. Dew Point Humidity Pressure Visibility Wind Dir Wind Speed Gust Speed Precip Events Conditions
12:15 AM 29.8 °F 28.8 °F 96% 30.44 in 7.0 mi Calm Calm - N/A   Clear
12:35 AM 30.2 °F 28.8 °F 94% 30.43 in 10.0 mi Calm Calm - N/A   Clear
1:15 AM 28.0 °F 26.6 °F 94% 30.44 in 10.0 mi Calm Calm - N/A   Clear
1:35 AM 29.8 °F 28.2 °F 94% 30.42 in 10.0 mi Calm Calm - N/A   Clear
1:55 AM 29.3 °F 27.9 °F 94% 30.42 in 10.0 mi Calm Calm - N/A   Clear
2:15 AM 28.4 °F 27.1 °F 95% 30.43 in 10.0 mi Calm Calm - N/A   Clear
2:35 AM 28.6 °F 27.3 °F 95% 30.42 in 10.0 mi Calm Calm - N/A   Clear
2:55 AM 28.9 °F 27.5 °F 94% 30.41 in 10.0 mi Calm Calm - N/A   Clear
3:15 AM 29.3 °F 27.9 °F 94% 30.41 in 10.0 mi Calm Calm - N/A   Clear
3:35 AM 30.2 °F 28.8 °F 94% 30.41 in 10.0 mi Calm Calm - N/A   Clear
3:55 AM 30.6 °F 29.1 °F 94% 30.41 in 10.0 mi Calm Calm - N/A   Clear
4:15 AM 30.2 °F 28.8 °F 94% 30.41 in 10.0 mi Calm Calm - N/A   Clear
4:35 AM 29.5 °F 28.0 °F 94% 30.44 in 10.0 mi Calm Calm - N/A   Clear
4:55 AM 29.7 °F 28.2 °F 94% 30.45 in 10.0 mi Calm Calm - N/A   Clear
5:15 AM 28.9 °F 27.5 °F 94% 30.43 in 10.0 mi Calm Calm - N/A   Clear
5:35 AM 28.9 °F 27.5 °F 94% 30.41 in 10.0 mi Calm Calm - N/A   Clear
5:55 AM 28.0 °F 27.0 °F 96% 30.42 in 10.0 mi Calm Calm - N/A   Clear
6:15 AM 28.2 °F 26.8 °F 94% 30.43 in 10.0 mi Calm Calm - N/A   Clear
6:35 AM 27.9 °F 26.6 °F 95% 30.44 in 10.0 mi Calm Calm - N/A   Clear
6:55 AM 27.7 °F 26.4 °F 95% 30.43 in 10.0 mi Calm Calm - N/A   Clear
7:15 AM 28.2 °F 26.8 °F 94% 30.44 in 10.0 mi Calm Calm - N/A   Clear
7:35 AM 27.5 °F 26.4 °F 96% 30.43 in 10.0 mi Calm Calm - N/A   Clear
7:55 AM 28.2 °F 26.8 °F 94% 30.43 in 10.0 mi Calm Calm - N/A   Clear
8:15 AM 29.5 °F 27.9 °F 94% 30.43 in 10.0 mi Calm Calm - N/A   Clear
8:35 AM 30.0 °F 28.4 °F 94% 30.44 in 10.0 mi Calm Calm - N/A   Clear
8:55 AM 32.2 °F 30.6 °F 94% 30.43 in 10.0 mi Calm Calm - N/A   Clear
9:15 AM 37.4 °F 34.0 °F 87% 30.41 in 5.0 mi Calm Calm - N/A   Clear
9:35 AM 40.5 °F 34.9 °F 80% 30.42 in 10.0 mi Calm Calm - N/A   Clear
9:55 AM 42.6 °F 36.5 °F 79% 30.44 in 10.0 mi Calm Calm - N/A   Clear
10:15 AM 45.1 °F 35.6 °F 69% 30.43 in 10.0 mi Calm Calm - N/A   Clear
10:35 AM 48.7 °F 34.3 °F 58% 30.42 in 10.0 mi Calm Calm - N/A   Mostly Cloudy
10:55 AM 52.7 °F 32.7 °F 47% 30.42 in 10.0 mi ESE 3.5 mph - N/A   Scattered Clouds
11:15 AM 53.4 °F 29.8 °F 40% 30.43 in 10.0 mi Calm Calm - N/A   Clear
11:35 AM 54.7 °F 29.7 °F 38% 30.40 in 10.0 mi Calm Calm - N/A   Scattered Clouds
11:55 AM 57.0 °F 31.6 °F 38% 30.38 in 10.0 mi South 3.5 mph - N/A   Clear
12:15 PM 56.7 °F 33.3 °F 41% 30.37 in 10.0 mi Calm Calm - N/A   Scattered Clouds
12:35 PM 57.2 °F 33.6 °F 41% 30.35 in 10.0 mi Calm Calm - N/A   Overcast
12:55 PM 59.2 °F 36.7 °F 43% 30.34 in 10.0 mi South 5.8 mph - N/A   Overcast
1:15 PM 60.3 °F 38.7 °F 45% 30.32 in 10.0 mi South 5.8 mph - N/A   Overcast
1:35 PM 61.2 °F 40.3 °F 46% 30.32 in 10.0 mi SW 5.8 mph - N/A   Overcast
1:55 PM 63.0 °F 40.3 °F 43% 30.31 in 10.0 mi SSW 6.9 mph - N/A   Mostly Cloudy
2:15 PM 61.7 °F 41.2 °F 47% 30.30 in 10.0 mi WSW 5.8 mph - N/A   Mostly Cloudy
2:35 PM 62.1 °F 41.4 °F 47% 30.29 in 10.0 mi SW 4.6 mph - N/A   Mostly Cloudy
2:55 PM 63.7 °F 42.8 °F 47% 30.28 in 10.0 mi SW 6.9 mph - N/A   Mostly Cloudy
3:15 PM 63.5 °F 43.3 °F 48% 30.27 in 10.0 mi WSW 9.2 mph - N/A   Overcast
3:35 PM 63.0 °F 43.2 °F 48% 30.27 in 10.0 mi SW 4.6 mph - N/A   Overcast
3:55 PM 62.1 °F 42.8 °F 49% 30.27 in 10.0 mi West 5.8 mph - N/A   Overcast
4:15 PM 61.7 °F 43.0 °F 50% 30.27 in 10.0 mi WSW 3.5 mph - N/A   Overcast
4:35 PM 61.7 °F 44.1 °F 52% 30.26 in 10.0 mi SW 3.5 mph - N/A   Overcast
4:55 PM 61.2 °F 45.5 °F 56% 30.26 in 10.0 mi WSW 4.6 mph - N/A   Mostly Cloudy
5:35 PM 57.9 °F 43.7 °F 59% 30.28 in 10.0 mi NW 4.6 mph - N/A   Scattered Clouds
6:15 PM 55.6 °F 43.2 °F 63% 30.28 in 10.0 mi Calm Calm - N/A   Scattered Clouds
6:35 PM 54.3 °F 43.2 °F 66% 30.28 in 10.0 mi Calm Calm - N/A   Clear
7:15 PM 52.2 °F 43.7 °F 73% 30.28 in 10.0 mi Calm Calm - N/A   Mostly Cloudy
7:35 PM 50.7 °F 43.9 °F 77% 30.28 in 10.0 mi Calm Calm - N/A   Overcast
7:55 PM 52.9 °F 44.2 °F 72% 30.28 in 10.0 mi Calm Calm - N/A   Overcast
8:15 PM 53.1 °F 44.2 °F 72% 30.27 in 10.0 mi Calm Calm - N/A   Overcast
8:35 PM 51.8 °F 45.3 °F 79% 30.28 in 10.0 mi Calm Calm - N/A   Overcast
8:55 PM 51.6 °F 45.0 °F 78% 30.27 in 10.0 mi Calm Calm - N/A   Overcast
9:15 PM 51.3 °F 45.1 °F 80% 30.28 in 10.0 mi Calm Calm - N/A   Overcast
9:35 PM 52.0 °F 45.5 °F 79% 30.27 in 10.0 mi South 3.5 mph - N/A   Overcast
9:55 PM 52.3 °F 45.0 °F 76% 30.26 in 10.0 mi South 3.5 mph - N/A   Overcast
10:15 PM 52.7 °F 44.6 °F 74% 30.26 in 10.0 mi Calm Calm - N/A   Overcast
10:35 PM 52.9 °F 44.8 °F 74% 30.25 in 10.0 mi Calm Calm - N/A   Mostly Cloudy
10:55 PM 50.2 °F 44.6 °F 81% 30.25 in 10.0 mi Calm Calm - N/A   Scattered Clouds
11:15 PM 48.9 °F 45.0 °F 86% 30.24 in 10.0 mi Calm Calm - N/A   Scattered Clouds
11:35 PM 48.9 °F 44.8 °F 86% 30.23 in 10.0 mi Calm Calm - N/A   Scattered Clouds
11:55 PM 47.1 °F 43.9 °F 88% 30.22 in 10.0 mi Calm Calm - N/A   Clear